Location: *
(48.8667°N, 2.3331°E)
Time: 05:11:50
(UTC+00:00)

Cosmos 1953 Rocket - Pass Details

Date: 09 April 2020
Orbit: 604 x 635 km, 82.5° (Epoch: 01 June)

Event Time Altitude Azimuth Distance (km) Brightness Sun altitude
Rises 19:25:16 0° 349° (N) 2,938 7.5 -8.8°
Reaches altitude 10° 19:27:31 10° 349° (NNW) 2,028 6.7 -9.2°
Maximum altitude 19:32:01 81° 262° (W) 649 3.7 -9.8°
Drops below altitude 10° 19:36:30 10° 176° (S) 2,018 5.9 -10.5°
Sets 19:38:44 0° 175° (S) 2,921 6.7 -10.8°
